TimeEST,TemperatureF,Dew PointF,Humidity,Sea Level PressureIn,VisibilityMPH,Wind Direction,Wind SpeedMPH,Gust SpeedMPH,PrecipitationIn,Events,Conditions,WindDirDegrees,DateUTC
12:55 AM,23.2,21.9,95,30.37,10.0,Calm,Calm,-,N/A,,Clear,0,2013-01-09 05:55:00
1:55 AM,21.4,20.3,96,30.36,9.0,NE,3.5,-,N/A,,Clear,40,2013-01-09 06:55:00
2:55 AM,21.2,19.8,94,30.38,10.0,Calm,Calm,-,N/A,,Scattered Clouds,0,2013-01-09 07:55:00
3:16 AM,19.4,17.6,93,30.36,2.0,Calm,Calm,-,N/A,,Overcast,0,2013-01-09 08:16:00
3:17 AM,19.4,17.6,93,30.36,1.5,Calm,Calm,-,N/A,,Overcast,0,2013-01-09 08:17:00
3:18 AM,19.4,17.6,93,30.36,1.2,Calm,Calm,-,N/A,,Overcast,0,2013-01-09 08:18:00
3:20 AM,19.4,17.6,93,30.36,1.0,Calm,Calm,-,N/A,,Overcast,0,2013-01-09 08:20:00
3:25 AM,19.4,17.6,93,30.36,1.2,Calm,Calm,-,N/A,,Mostly Cloudy,0,2013-01-09 08:25:00
3:26 AM,19.4,17.6,93,30.36,1.8,Calm,Calm,-,N/A,,Mostly Cloudy,0,2013-01-09 08:26:00
3:27 AM,19.4,17.6,93,30.37,2.5,Calm,Calm,-,N/A,,Mostly Cloudy,0,2013-01-09 08:27:00
3:28 AM,19.4,17.6,93,30.37,4.0,Calm,Calm,-,N/A,,Mostly Cloudy,0,2013-01-09 08:28:00
3:43 AM,21.2,19.4,93,30.37,2.5,Calm,Calm,-,N/A,,Partly Cloudy,0,2013-01-09 08:43:00
3:44 AM,21.2,19.4,93,30.37,2.0,Calm,Calm,-,N/A,,Partly Cloudy,0,2013-01-09 08:44:00
3:45 AM,21.2,19.4,93,30.37,1.8,Calm,Calm,-,N/A,,Partly Cloudy,0,2013-01-09 08:45:00
3:46 AM,21.2,19.4,93,30.36,1.5,Calm,Calm,-,N/A,,Partly Cloudy,0,2013-01-09 08:46:00
3:48 AM,21.2,19.4,93,30.37,1.2,Calm,Calm,-,N/A,,Partly Cloudy,0,2013-01-09 08:48:00
3:49 AM,21.2,19.4,93,30.37,1.0,Calm,Calm,-,N/A,,Clear,0,2013-01-09 08:49:00
3:51 AM,21.2,19.4,93,30.37,0.8,Calm,Calm,-,N/A,,Clear,0,2013-01-09 08:51:00
3:55 AM,21.0,19.6,94,30.37,0.8,Calm,Calm,-,N/A,,Clear,0,2013-01-09 08:55:00
4:00 AM,21.2,19.4,93,30.37,1.0,Calm,Calm,-,N/A,,Clear,0,2013-01-09 09:00:00
4:01 AM,21.2,19.4,93,30.37,0.8,Calm,Calm,-,N/A,,Clear,0,2013-01-09 09:01:00
4:05 AM,19.4,17.6,93,30.37,0.5,Calm,Calm,-,N/A,Fog,Light Freezing Fog,0,2013-01-09 09:05:00
4:07 AM,19.4,17.6,93,30.37,0.5,Calm,Calm,-,N/A,Fog,Light Freezing Fog,0,2013-01-09 09:07:00
4:08 AM,19.4,17.6,93,30.36,0.5,Calm,Calm,-,N/A,Fog,Light Freezing Fog,0,2013-01-09 09:08:00
4:11 AM,19.4,17.6,93,30.36,0.8,Calm,Calm,-,N/A,,Clear,0,2013-01-09 09:11:00
4:18 AM,17.6,15.8,93,30.37,0.8,Calm,Calm,-,N/A,,Clear,0,2013-01-09 09:18:00
4:19 AM,19.4,17.6,93,30.37,0.8,Calm,Calm,-,N/A,,Clear,0,2013-01-09 09:19:00
4:22 AM,19.4,17.6,93,30.37,1.0,Calm,Calm,-,N/A,,Clear,0,2013-01-09 09:22:00
4:24 AM,19.4,17.6,93,30.37,1.2,Calm,Calm,-,N/A,,Clear,0,2013-01-09 09:24:00
4:25 AM,19.4,17.6,93,30.37,1.5,Calm,Calm,-,N/A,,Clear,0,2013-01-09 09:25:00
4:26 AM,19.4,17.6,93,30.37,2.5,Calm,Calm,-,N/A,,Clear,0,2013-01-09 09:26:00
4:27 AM,19.4,17.6,93,30.37,4.0,Calm,Calm,-,N/A,,Clear,0,2013-01-09 09:27:00
4:31 AM,17.6,15.8,93,30.37,2.0,Calm,Calm,-,N/A,,Clear,0,2013-01-09 09:31:00
4:32 AM,17.6,15.8,93,30.37,1.2,Calm,Calm,-,N/A,,Clear,0,2013-01-09 09:32:00
4:33 AM,17.6,15.8,93,30.37,1.0,Calm,Calm,-,N/A,,Clear,0,2013-01-09 09:33:00
4:34 AM,17.6,15.8,93,30.37,0.8,Calm,Calm,-,N/A,,Clear,0,2013-01-09 09:34:00
4:36 AM,17.6,15.8,93,30.37,0.5,Calm,Calm,-,N/A,Fog,Light Freezing Fog,0,2013-01-09 09:36:00
4:38 AM,17.6,15.8,93,30.37,0.5,Calm,Calm,-,N/A,Fog,Light Freezing Fog,0,2013-01-09 09:38:00
4:39 AM,17.6,15.8,93,30.37,0.5,Calm,Calm,-,N/A,Fog,Light Freezing Fog,0,2013-01-09 09:39:00
4:41 AM,17.6,15.8,93,30.37,0.2,Calm,Calm,-,N/A,Fog,Light Freezing Fog,0,2013-01-09 09:41:00
4:43 AM,17.6,15.8,93,30.37,0.2,Calm,Calm,-,N/A,Fog,Light Freezing Fog,0,2013-01-09 09:43:00
4:44 AM,17.6,15.8,93,30.37,0.2,Calm,Calm,-,N/A,Fog,Light Freezing Fog,0,2013-01-09 09:44:00
4:45 AM,17.6,17.6,100,30.37,0.2,Calm,Calm,-,N/A,Fog,Light Freezing Fog,0,2013-01-09 09:45:00
4:47 AM,19.4,17.6,93,30.37,0.5,Calm,Calm,-,N/A,Fog,Light Freezing Fog,0,2013-01-09 09:47:00
4:48 AM,17.6,15.8,93,30.37,0.5,Calm,Calm,-,N/A,Fog,Light Freezing Fog,0,2013-01-09 09:48:00
4:51 AM,17.6,15.8,93,30.37,0.8,NNE,3.5,-,N/A,,Clear,20,2013-01-09 09:51:00
4:52 AM,17.6,15.8,93,30.37,1.0,NNE,3.5,-,N/A,,Clear,30,2013-01-09 09:52:00
4:53 AM,17.6,15.8,93,30.37,1.2,NE,3.5,-,N/A,,Clear,40,2013-01-09 09:53:00
4:55 AM,18.0,16.0,92,30.37,1.8,NE,3.5,-,N/A,,Clear,50,2013-01-09 09:55:00
4:56 AM,17.6,15.8,93,30.37,3.0,NE,3.5,-,N/A,,Clear,50,2013-01-09 09:56:00
5:55 AM,17.4,15.4,92,30.37,10.0,Calm,Calm,-,N/A,,Clear,0,2013-01-09 10:55:00
6:55 AM,14.2,11.7,90,30.39,10.0,Calm,Calm,-,N/A,,Clear,0,2013-01-09 11:55:00
7:55 AM,16.0,13.8,91,30.39,10.0,Calm,Calm,-,N/A,,Clear,0,2013-01-09 12:55:00
8:55 AM,18.9,17.1,93,30.38,10.0,Calm,Calm,-,N/A,,Clear,0,2013-01-09 13:55:00
9:55 AM,24.8,23.9,96,30.38,8.0,Calm,Calm,-,N/A,,Clear,0,2013-01-09 14:55:00
10:55 AM,28.2,27.5,97,30.34,10.0,Calm,Calm,-,N/A,,Clear,0,2013-01-09 15:55:00
11:55 AM,32.9,27.1,79,30.25,10.0,SSW,4.6,-,N/A,,Partly Cloudy,210,2013-01-09 16:55:00
12:55 PM,34.2,27.3,76,30.26,10.0,WNW,6.9,-,N/A,,Partly Cloudy,290,2013-01-09 17:55:00
1:55 PM,34.7,27.7,76,30.19,10.0,SSE,8.1,-,N/A,,Scattered Clouds,160,2013-01-09 18:55:00
2:55 PM,36.5,28.0,71,30.16,10.0,South,8.1,-,N/A,,Scattered Clouds,180,2013-01-09 19:55:00
3:03 PM,37.4,28.4,70,30.12,10.0,SSE,15.0,-,N/A,,Partly Cloudy,150,2013-01-09 20:03:00
3:17 PM,37.4,28.4,70,30.06,10.0,SSE,13.8,-,N/A,Rain,Light Rain,150,2013-01-09 20:17:00
3:23 PM,37.4,28.4,70,30.08,10.0,SSE,11.5,-,N/A,,Overcast,160,2013-01-09 20:23:00
3:55 PM,38.1,30.2,73,30.09,10.0,SSW,8.1,-,0.00,,Overcast,210,2013-01-09 20:55:00
4:55 PM,38.1,31.3,76,30.07,10.0,South,6.9,-,N/A,,Overcast,190,2013-01-09 21:55:00
5:55 PM,39.0,32.9,79,30.04,10.0,South,12.7,-,N/A,,Clear,180,2013-01-09 22:55:00
6:55 PM,38.8,33.1,80,30.07,10.0,SSE,3.5,-,N/A,,Clear,150,2013-01-09 23:55:00
7:55 PM,36.9,32.4,84,30.07,10.0,SSE,8.1,-,N/A,,Clear,150,2013-01-10 00:55:00
8:55 PM,35.6,31.3,84,30.06,10.0,South,8.1,-,N/A,,Clear,170,2013-01-10 01:55:00
9:55 PM,37.9,31.1,76,30.09,10.0,SSW,8.1,-,N/A,,Clear,200,2013-01-10 02:55:00
10:55 PM,39.7,29.1,66,30.10,10.0,SSW,3.5,-,N/A,,Partly Cloudy,200,2013-01-10 03:55:00
11:55 PM,42.3,25.0,50,30.10,10.0,West,11.5,-,N/A,,Overcast,270,2013-01-10 04:55:00